Retour au catalogue

COSMOS 886 DEB

ActifLEO
NORAD 18518·DEBRIS·🇷🇺 Russia

Lancé Dec 27, 1976 depuis Baikonur Cosmodrome

Loading…

Prochains Passages (prochaines 24 heures)

TLE

FraisSource: Space-Track

Époque: Sep 14, 2026, 11:10 UTC

1 18518U 76126BW  26257.46553564  .00000375  00000-0  62611-3 0  9999
2 18518  65.7562 281.7419 0715065  16.8656  47.9266 12.81756628760108

Suivez COSMOS 886 DEB en temps réel avec AllMySat

Download on the App Store